Regional Weather Roundup
Issued by NWS

Home | Current Version | Previous Version | Text Only | Print | Product List | Glossary On
Versions: 1 2 3 4 5 6 7 8 9 10 11 12 13 14 15 16 17 18 19 20 21 22 23 24 25 26 27 28 29 30 31 32 33 34 35 36 37 38 39 40 41 42 43 44 45 46 47 48 49 50
000
ASCA44 KEWX 211520
RWRMX

LATIN AMERICA AND CARIBBEAN REGIONAL WEATHER ROUNDUP
NATIONAL WEATHER SERVICE AUSTIN/SAN ANTONIO TX
1000 AM CDT TUE OCT 21 2014

NOTE: "FAIR" INDICATED FEW OR NO CLOUDS BELOW 12,000 FEET WITH NO
SIGNIFICANT WEATHER AND/OR OBSTRUCTIONS TO VISIBILITY.

BAJA CALIFORNIA

CITY           SKY/WX    TMP DP  RH WIND       PRES   REMARKS
LORETO         SUNNY     72  59  64 W7        29.80
LA PAZ         SUNNY     68  61  77 S7        29.85
MEXICALI       MOSUNNY   68  57  68 E3        29.82R
S.J. DEL CABO  SUNNY     75  63  64 CALM      29.84
TIJUANA        PTSUNNY   64  57  77 NW6       29.93R FOG

NORTHWESTERN MEXICO

CITY           SKY/WX    TMP DP  RH WIND       PRES   REMARKS
CULIACAN       SUNNY     77  68  73 CALM      29.81R
DURANGO        PTSUNNY   61  52  72 CALM      30.16R
GUAYMAS        SUNNY     73  66  78 CALM      29.76R
HERMOSILLO     SUNNY     73  64  73 CALM      29.85R
CD. JUAREZ     PTSUNNY   61  48  63 CALM      30.04S
LOS MOCHIS     MOSUNNY   75  63  64 CALM      29.81
OBREGON        SUNNY     72  59  64 E3        29.78R

NORTHEASTERN MEXICO

CITY           SKY/WX    TMP DP  RH WIND       PRES   REMARKS
CHIHUAHUA      FOG       57  57 100 N10       30.12R VSB 1
MATAMOROS      MOSUNNY   77  75  94 NE5       29.96R
MONCLOVA         N/A    N/A N/A N/A MISG        N/A
MONTERREY      DRIZZLE   70  68  94 CALM      30.03R
NUEVO LAREDO   CLOUDY    75  68  78 E9        30.02R
PIEDRAS NEGRAS PTSUNNY   70  66  88 SE7       30.05S
REYNOSA        MOSUNNY   73  68  83 N7        29.98R
SALTILLO       FOG       61  55  82 NE9       30.17R VSB 1
TORREON        PTSUNNY   68  57  68 CALM      30.05R
CD. VICTORIA   PTSUNNY   73  70  88 N7        30.00R

WESTERN MEXICO

CITY           SKY/WX    TMP DP  RH WIND       PRES   REMARKS
AGUASCALIENTES MOSUNNY   64  50  59 E12       30.18R
COLIMA         FOG       72  68  88 NW5       29.90R VSB 1
DEL BAJIO      PTSUNNY   66  54  63 CALM      30.20R
GUADALAJARA    CLOUDY    66  57  72 NE5       30.08R
MANZANILLO     PTSUNNY   81  75  83 CALM      29.72R
MAZATLAN       MOSUNNY   73  70  88 N7        29.77R
P. VALLARTA    CLOUDY    79  75  89 CALM      29.78R
URUAPAN        PTSUNNY   66  64  94 CALM      30.06R
ZACATECAS      MOSUNNY   61  45  55 CALM      30.21R

CENTRAL MEXICO

CITY           SKY/WX    TMP DP  RH WIND       PRES   REMARKS
CUERNAVACA     CLOUDY    70  66  88 CALM      30.03R
MORELIA        MOSUNNY   66  55  68 CALM      30.14R
POZA RICA      PTSUNNY   73  70  88 NW12      29.92S FOG
PUEBLA         PTSUNNY   63  52  67 N18       30.22R
QUERETARO      CLOUDY    59  55  88 SE12      30.23R
S. LUIS POTOSI CLOUDY    57  55  94 E6        30.19R
TAMPICO        CLOUDY    73  70  88 N13       29.91R
TOLUCA         MOSUNNY   57  45  62 NE6       30.27S

SOUTHERN MEXICO

CITY           SKY/WX    TMP DP  RH WIND       PRES   REMARKS
ACAPULCO       PTSUNNY   81  75  83 CALM      29.76S
B. DE HUATULCO PTSUNNY   77  70  78 CALM      29.85R
OAXACA         PTSUNNY   68  59  73 CALM      30.11R
P. ESCONDIDO   PTSUNNY   79  75  89 CALM      29.92R
VERACRUZ       PTSUNNY   79  73  83 CALM      29.79R
ZIHUATANEJO    PTSUNNY   81  73  78 CALM      29.78R

YUCATAN PENINSULA

CITY           SKY/WX    TMP DP  RH WIND       PRES   REMARKS
CAMPECHE       DRIZZLE   77  77 100 E5        29.80R
CANCUN         PTSUNNY   77  75  94 E2        29.90R
CHETUMAL       PTSUNNY   84  75  74 E8        29.80R HX  92
CD. DEL CARMEN LGT RAIN  75  73  94 NE5       29.81R
COZUMEL        PTSUNNY   81  77  89 SE13      29.87R
MERIDA         CLOUDY    77  75  94 E12       29.84S
MINATITLAN     DRIZZLE   75  72  88 S12       29.78R FOG
TAPACHULA      DRIZZLE   75  73  94 CALM      29.89R
TUX. GUTIERREZ CLOUDY    72  70  94 CALM      29.90R FOG
VILLAHERMOSA   CLOUDY    77  73  88 CALM      29.82R

CENTRAL AMERICA

CITY           SKY/WX    TMP DP  RH WIND       PRES   REMARKS
BELIZE CITY    MOSUNNY   81  79  94 CALM      29.79S
MANAGUA        MOSUNNY   81  75  83 CALM      29.83S

CARIBBEAN

CITY           SKY/WX    TMP DP  RH WIND       PRES   REMARKS
ARUBA          MOSUNNY   88  75  66 E17       29.89S HX  97
CURACAO        MOSUNNY   86  77  74 SE12      29.92S HX  97
KINGSTON       MOSUNNY   88  77  70 SE18      29.92S HX 100
SAN JUAN       MOSUNNY   88  75  66 NE12      29.97F HX  97
SANTO DOMINGO    N/A     84  75  74 SE7       29.94S HX  92
ST. CROIX      MOSUNNY   88  73  62 E16       29.99S HX  96
ST. KITTS      MOSUNNY   86  75  70 NE12      29.97S HX  95
ST. MAARTEN    MOSUNNY   88  72  58 E8        29.97S HX  94

$$




USA.gov is the U.S. government's official web portal to all federal, state and local government web resources and services.